Dewpoint
-3 -3 0 -5 -6 -8 -7 -8 -9 -7 -4 -5 -8 -10 -10 -10 -8 -7 -7 -8 -8 -5 -3 -1 -0 -3 -2 -1 0 1 1 2 3 3 2 1 2 2 3 3 3 2 2 2
-2 -0 -4 -5 -7 -7 -9 -8 -7 -6 -5 -6 -8 -7 -9 -10 -9 -7 -6 -7 -6 -4 -2 -1 1 2 2 2 2 2 2 2 2 1 1 1 -0 -1 -2 -1 1 2 2 3
-2 -3 -5 -5 -4 -4 -2 -4 -5 -4 -5 -5 -6 -6 -7 -9 -7 -6 -4 -3 -4 -3 -2 -1 0 2 3 3 1 -0 -1 -5 -6 -5 -5 -1 2 2 2 3 3 3 2 2
-3 -5 -6 -5 -4 -1 -1 -3 -3 -2 5 6 -5 1 -5 -8 -7 -4 -3 -2 -3 -2 -1 -0 1 2 4 2 -2 -5 -8 -10 -10 -5 -1 3 3 3 2 1 3 2 2 2
-1 -4 -3 0 -0 -1 1 -2 -2 -0 4 2 -1 4 -2 -6 -7 -8 -9 -5 -2 -2 -1 -0 1 3 2 -2 -5 -8 -11 -12 -7 3 4 3 3 3 4 4 3 3 3 4
-2 -2 -2 -1 -2 -2 -2 -2 -1 1 5 6 -1 -0 5 -3 -8 -7 -7 -7 -4 -2 -2 -0 2 3 1 1 -1 -8 -14 -12 2 4 3 3 3 4 4 3 2 4 4 3
-1 -1 -2 -2 -0 -2 -1 1 9 9 7 4 1 3 0 -4 -6 -4 -4 -3 -2 -2 -1 1 0 0 1 1 -3 -9 -13 -2 4 4 2 2 3 4 4 4 3 2 4 4
4 3 -2 -3 -1 2 2 3 8 4 3 0 -0 2 1 -5 -5 -5 -4 -4 -3 -1 -0 -0 -0 1 1 1 -3 -10 -14 3 4 3 2 2 4 4 4 3 3 5 5 4
-1 2 -1 -0 -1 -0 1 3 -1 3 -1 1 -5 -3 -5 -6 -5 -5 -4 -4 -3 0 -1 -1 -1 -0 1 1 -5 -13 -13 4 4 3 2 3 4 3 3 3 4 5 4 4
-4 4 -1 0 0 -0 0 -2 4 5 4 4 -0 1 7 4 2 -3 -5 -4 -2 -2 -2 -1 -0 0 1 -2 -8 -16 -11 3 4 3 4 4 3 4 5 5 5 5 4 5
-5 -0 2 0 1 2 1 1 0 -0 -0 3 0 3 6 5 1 -2 -4 -3 -2 -1 -2 -1 0 1 -2 -6 -11 -16 -15 3 4 4 5 5 5 5 5 5 4 5 5 5
-2 -1 3 2 -1 -2 -1 -0 -1 2 2 0 3 4 -4 -4 -3 -2 0 -1 -1 -1 -2 -1 -0 -3 -4 -6 -9 -16 -19 -0 3 4 4 4 4 4 4 4 4 4 4 4
-2 0 4 3 1 -0 1 -0 -1 -1 1 3 3 5 -5 -3 -3 -2 -1 -2 -2 -2 -2 -1 -1 -4 -4 -4 -8 -15 -19 -12 2 3 3 3 3 3 3 3 3 3 4 4
-1 0 2 5 1 -1 2 1 -0 0 3 0 3 2 -1 -3 -3 -3 -2 -2 -2 -2 -1 -1 -1 -2 -3 -4 -5 -13 -19 -19 -4 2 3 3 2 -3 -1 3 3 3 3 3
-1 3 -0 -0 -1 -1 -0 -0 -0 3 1 1 -2 -3 -3 -6 -4 -5 -4 -3 -3 -2 -1 -1 -1 -3 -4 -4 -4 -9 -18 -19 -17 -6 0 1 -1 -6 -3 2 3 3 3 3
-1 1 0 2 -2 -2 -1 -2 -1 -1 -1 0 -0 -0 -4 -5 -4 -2 -2 -2 -1 -1 -2 -2 -2 -2 -5 -5 -5 -5 -16 -19 -19 -18 -15 -10 -9 -9 -7 -3 0 0 -0 -0
0 0 1 1 -2 -2 -1 -4 -4 -3 -3 -2 -0 -2 -5 -5 -5 -5 -5 -4 -3 -3 -3 -3 -2 -3 -4 -4 -4 -5 -13 -17 -18 -18 -17 -16 -14 -12 -11 -9 -7 -5 -4 -4
-0 -0 -0 0 -3 -1 -5 -7 -6 -4 -5 -5 -4 -4 -5 -5 -5 -5 -4 -4 -4 -4 -4 -4 -5 -4 -4 -5 -4 -5 -12 -15 -16 -17 -17 -17 -17 -16 -14 -12 -11 -9 -8 -6
-2 -2 -0 -0 -2 -4 -6 -4 -5 -4 -7 -8 -6 -7 -8 -7 -5 -4 -7 -7 -6 -6 -7 -8 -7 -8 -8 -5 -5 -7 -10 -12 -14 -15 -15 -15 -16 -16 -15 -15 -14 -13 -12 -11
-2 -1 0 -1 1 -2 -7 -4 -4 -5 -4 -11 -7 -7 -7 -5 -7 -10 -9 -9 -8 -7 -7 -8 -9 -10 -9 -8 -7 -7 -8 -9 -11 -11 -12 -13 -12 -13 -14 -15 -15 -15 -15 -15
-0 -1 0 -0 0 -2 -6 -4 -5 -2 -8 -7 -7 -7 -6 -5 -7 -6 -5 -6 -6 -7 -7 -6 -6 -7 -9 -9 -6 -7 -8 -9 -10 -9 -9 -10 -11 -12 -12 -12 -13 -14 -14 -14
-1 -0 0 -1 -0 1 -6 -5 -4 -7 -8 -6 -8 -8 -7 -6 -5 -6 -6 -5 -5 -5 -6 -6 -5 -7 -9 -10 -9 -10 -10 -8 -7 -7 -7 -8 -9 -9 -10 -10 -10 -11 -11 -12
-2 -4 -3 -3 -3 -6 -6 -6 -6 -6 -5 -6 -7 -7 -7 -7 -7 -7 -7 -8 -9 -6 -10 -10 -7 -8 -9 -10 -11 -11 -12 -11 -7 -4 -4 -5 -6 -8 -8 -8 -9 -9 -8 -9
-5 -6 -3 -5 -8 -7 -8 -8 -6 -7 -7 -7 -7 -8 -8 -8 -8 -8 -8 -7 -8 -11 -12 -11 -10 -10 -10 -10 -10 -10 -11 -12 -10 -8 -7 -4 -3 -4 -6 -7 -7 -7 -7 -7
-7 -4 -5 -6 -7 -8 -9 -9 -11 -10 -10 -10 -9 -8 -8 -8 -8 -8 -7 -7 -7 -8 -10 -10 -10 -10 -10 -11 -11 -9 -8 -10 -11 -11 -11 -9 -4 -3 -3 -4 -5 -5 -6 -6
-7 -7 -7 -7 -9 -9 -9 -9 -9 -8 -8 -7 -7 -7 -7 -7 -7 -7 -7 -8 -8 -8 -9 -10 -10 -10 -10 -10 -10 -11 -9 -8 -9 -10 -10 -8 -5 -3 -2 -2 -2 -3 -4 -4
Wind_Speed
6 7 7 6 2 2 6 5 6 4 3 4 9 12 11 12 18 19 20 17 15 12 9 7 7 10 13 14 15 15 17 17 18 18 19 18 18 19 19 20 21 23 26 28
6 7 5 3 4 6 4 6 4 4 2 4 8 16 15 16 20 21 19 18 15 11 9 7 6 9 11 12 12 14 16 17 18 19 20 21 21 22 21 22 22 22 23 25
8 7 2 6 7 8 8 3 3 4 4 3 9 12 14 9 7 10 13 13 12 11 9 7 7 8 10 11 13 15 17 19 19 20 21 20 20 20 19 16 18 20 24 25
9 4 4 6 7 6 3 4 3 4 3 2 3 5 9 7 10 10 11 12 12 11 9 7 9 9 8 11 14 16 17 19 19 19 19 18 19 20 19 21 19 18 15 16
2 6 6 8 4 4 3 2 3 3 2 3 5 3 5 5 9 12 11 13 12 11 9 8 10 10 10 12 14 16 17 18 18 17 19 22 21 17 15 17 16 13 15 15
9 4 5 4 6 7 7 1 1 2 2 3 3 3 2 7 5 1 2 9 10 9 8 10 9 9 9 9 12 16 18 18 16 18 15 12 11 14 14 14 14 12 13 15
5 5 3 2 3 3 1 2 2 2 2 4 2 3 11 6 3 2 3 5 7 8 9 8 7 8 8 9 13 16 17 17 17 13 9 9 9 11 13 13 14 12 13 14
3 2 0 3 2 0 1 1 1 4 2 4 3 6 3 2 1 5 7 7 7 8 8 8 9 10 9 10 13 15 16 15 14 7 7 9 9 11 11 10 11 13 15 16
3 3 3 2 1 1 2 2 2 3 1 3 5 5 13 11 10 9 8 7 7 6 8 11 12 12 11 10 13 15 15 13 11 8 7 8 7 6 8 11 13 11 14 16
2 3 1 3 1 2 3 3 2 2 3 5 4 5 5 3 4 6 11 7 4 2 8 12 13 12 11 11 13 15 13 12 9 8 9 9 7 8 11 11 11 10 12 14
1 0 3 2 7 7 4 3 5 3 3 3 5 3 4 4 5 4 9 9 7 6 12 14 12 11 12 12 13 13 12 11 9 9 10 9 11 12 13 14 14 12 11 12
2 1 3 4 3 3 9 8 9 4 4 4 4 7 5 4 3 5 8 10 10 10 15 14 12 11 12 13 12 13 13 11 10 10 11 12 12 14 14 14 13 13 12 11
2 2 2 4 5 3 6 9 10 8 1 8 4 4 2 2 3 7 11 11 11 14 18 13 12 12 12 13 13 14 13 12 11 10 11 11 12 12 13 13 14 14 14 14
2 2 6 3 2 1 4 8 13 11 6 7 14 15 19 17 13 12 12 15 17 21 19 14 13 12 15 15 15 16 14 13 11 10 11 10 11 12 12 12 12 13 14 14
3 5 8 11 13 13 16 16 14 18 21 11 13 17 21 15 13 19 20 22 23 20 15 13 16 19 19 18 17 16 15 14 13 12 12 12 11 11 11 10 10 11 11 12
3 4 6 7 13 13 17 19 21 23 23 27 26 31 25 28 14 4 6 10 12 16 18 20 20 22 21 19 18 17 15 16 14 13 14 14 12 12 11 10 11 12 11 11
4 3 4 5 1 10 15 18 22 19 20 21 21 26 20 18 19 21 19 19 20 20 21 22 22 21 19 17 16 17 17 17 15 15 15 15 14 13 12 12 12 12 12 11
4 5 4 7 10 4 3 5 4 6 15 18 22 23 24 24 25 23 23 22 20 16 12 11 12 11 12 14 16 17 17 17 17 16 16 16 15 15 14 14 14 14 14 13
7 6 4 4 7 15 2 2 1 6 3 6 16 16 17 13 12 17 4 3 5 8 11 12 13 12 12 13 15 17 18 19 19 18 18 17 17 17 16 16 16 16 15 15
6 7 5 0 4 4 3 2 1 1 3 4 2 8 10 4 5 6 2 6 8 10 13 16 16 17 17 15 16 18 19 20 21 20 19 19 19 19 18 18 18 18 17 17
4 5 11 9 6 8 7 9 4 3 3 4 7 9 10 7 12 16 16 16 17 19 22 24 23 22 21 19 19 21 21 24 21 23 22 22 22 22 20 20 20 19 19 19
9 8 5 6 6 8 11 7 5 2 3 8 17 17 16 18 21 24 25 25 25 25 27 24 26 26 23 20 20 23 27 25 24 26 25 24 24 24 23 23 22 22 21 20
5 6 3 9 6 4 8 16 8 10 13 21 22 19 18 21 22 22 24 27 29 23 28 23 22 24 21 21 23 28 28 28 27 29 29 27 26 27 27 26 24 24 23 22
7 14 5 3 7 19 20 19 24 23 21 21 19 20 24 27 27 31 32 31 30 30 28 22 20 21 24 27 29 31 28 26 27 28 29 29 29 28 28 28 26 27 26 25
2 9 8 13 20 27 19 7 8 10 13 22 28 29 29 30 31 32 32 29 29 28 27 22 24 27 29 29 30 28 29 28 30 30 30 29 29 29 30 30 30 29 28 27
16 12 9 9 21 18 22 22 21 27 34 30 28 30 32 30 31 30 29 30 28 26 21 24 27 29 29 27 25 23 23 24 26 27 27 27 27 27 28 29 30 30 29 28
Wind_Direction
30 120 115 87 58 25 153 180 178 71 41 305 251 268 268 238 236 248 252 254 256 251 248 241 270 286 292 297 300 304 307 308 310 309 308 303 302 295 289 283 279 281 281 276
98 99 78 83 88 96 136 142 101 119 38 308 298 284 270 251 243 244 254 256 249 240 238 246 266 286 293 293 297 304 310 311 309 307 303 302 301 298 297 294 292 295 295 290
92 91 107 104 88 99 55 45 88 5 326 254 305 273 254 229 260 243 244 246 235 229 230 241 275 285 286 295 299 303 304 307 309 308 307 305 299 297 294 291 284 287 291 288
68 52 94 97 73 353 124 34 48 20 11 280 342 288 272 248 216 217 228 221 222 220 230 257 288 284 278 292 299 302 307 311 315 309 305 301 294 290 290 295 298 303 308 313
74 79 71 59 20 356 98 85 61 47 62 329 192 253 259 246 258 240 228 221 215 217 233 263 290 277 284 293 297 307 316 319 316 313 308 305 301 297 296 297 300 304 306 321
89 77 39 69 59 66 130 137 74 100 111 250 133 246 258 249 279 152 217 197 211 220 255 278 283 275 287 292 302 313 320 323 318 317 320 325 327 314 304 310 311 312 308 314
73 33 76 34 88 113 352 256 325 241 204 278 130 238 256 256 219 232 145 173 211 249 271 276 274 276 281 289 303 315 321 324 322 318 320 330 332 326 327 323 316 316 327 320
158 166 34 18 41 52 135 173 267 272 283 332 161 238 261 333 238 240 244 238 256 266 263 268 283 293 298 295 305 313 323 330 329 326 318 329 341 346 344 319 317 318 307 307
152 121 127 64 42 7 140 226 29 302 141 262 244 261 269 244 244 228 222 235 258 261 274 284 289 294 291 288 297 315 326 336 325 310 329 348 357 335 326 336 327 308 308 314
103 108 203 113 223 173 269 137 169 179 279 270 237 250 252 282 268 231 209 207 200 257 305 297 291 288 283 288 305 317 325 329 325 314 323 333 310 297 308 309 305 312 317 319
140 96 137 189 211 191 169 209 222 301 255 277 301 260 191 236 245 190 179 194 217 268 316 309 295 286 288 294 305 316 319 320 303 309 311 311 309 312 308 307 312 311 303 304
55 315 193 213 104 275 257 246 217 244 174 244 304 273 351 297 257 253 249 245 256 277 315 308 300 294 290 295 300 310 310 309 305 306 302 298 305 301 299 307 314 320 322 314
118 211 249 190 183 188 238 221 236 245 333 239 262 254 77 24 305 272 269 270 264 291 308 297 298 293 293 296 294 299 302 301 294 302 306 309 309 311 312 306 310 313 316 318
188 260 245 283 341 328 217 223 224 217 233 256 231 271 268 285 293 284 277 274 280 297 294 278 281 285 290 291 293 293 294 291 293 297 299 306 320 325 330 330 323 317 319 316
265 253 249 265 268 259 253 254 233 222 230 249 267 264 272 284 289 287 281 278 283 288 283 275 269 282 284 282 284 283 286 290 290 288 289 299 309 317 332 336 332 329 330 330
210 279 301 280 260 258 265 257 248 246 243 246 262 273 282 286 307 341 324 308 288 284 286 284 278 278 276 273 272 275 280 281 280 284 288 291 296 303 311 315 316 319 323 328
219 273 310 275 204 283 276 255 238 242 244 246 251 257 280 291 291 298 303 295 288 287 291 291 286 277 273 266 266 270 273 275 280 281 283 288 291 295 298 301 303 308 315 319
235 251 279 289 304 244 22 220 243 262 260 244 249 268 277 285 286 288 286 283 284 289 292 299 308 300 281 270 267 268 270 274 277 280 285 288 290 291 292 294 297 300 303 306
236 251 279 271 303 292 241 85 59 197 308 248 243 263 287 303 293 287 257 249 272 291 301 305 305 303 292 277 273 269 270 274 275 278 282 287 288 288 289 290 291 294 297 298
224 253 256 225 275 264 65 106 144 292 240 28 331 294 315 312 297 27 323 312 308 311 314 312 309 304 297 289 276 271 273 273 276 280 281 281 282 284 285 286 288 290 292 293
169 213 227 241 270 279 275 159 167 287 72 58 13 340 305 263 283 312 307 298 295 298 302 302 297 296 295 285 277 275 275 273 279 277 276 275 278 279 279 281 283 286 289 292
180 175 193 204 241 263 153 137 206 44 269 315 331 320 307 292 289 293 296 294 294 294 298 296 288 287 291 280 277 279 278 282 277 275 274 273 274 275 275 276 278 281 283 285
232 219 231 211 226 257 205 248 275 305 295 300 308 303 306 299 285 291 294 301 304 291 302 297 286 287 283 275 281 283 288 283 277 272 273 273 272 271 273 273 276 277 279 280
235 231 229 298 249 264 288 281 270 282 282 292 294 293 298 294 287 291 291 289 290 289 296 292 288 290 289 288 287 286 282 277 273 271 272 272 270 271 273 273 272 272 273 275
341 157 218 259 274 275 292 341 335 300 298 303 300 295 292 289 286 289 289 287 286 285 286 283 287 292 294 292 287 280 276 271 270 275 275 272 270 270 272 272 274 275 275 276
217 239 236 255 280 299 304 313 306 306 305 301 301 300 294 290 287 287 284 286 288 284 278 289 292 295 296 294 292 285 278 272 269 268 273 277 277 275 273 273 274 274 276 277
Height
1515 1513 1521 1524 1525 1520 1516 1518 1520 1529 1538 1536 1525 1522 1522 1523 1526 1526 1525 1525 1526 1528 1529 1528 1527 1526 1525 1524 1523 1522 1520 1518 1517 1515 1513 1511 1509 1507 1505 1503 1501 1499 1498 1496
1518 1529 1534 1531 1527 1522 1521 1523 1527 1537 1539 1537 1525 1523 1518 1517 1516 1519 1521 1521 1522 1525 1526 1527 1526 1524 1523 1521 1520 1519 1517 1516 1514 1511 1509 1507 1504 1501 1499 1497 1495 1493 1491 1489
1518 1535 1536 1530 1529 1528 1534 1528 1534 1535 1537 1538 1535 1516 1506 1507 1513 1516 1517 1519 1520 1522 1523 1524 1524 1522 1520 1519 1518 1517 1515 1513 1510 1508 1505 1502 1500 1497 1495 1494 1491 1488 1485 1482
1532 1539 1536 1535 1538 1540 1534 1546 1544 1543 1544 1539 1538 1529 1504 1501 1507 1512 1513 1515 1517 1519 1520 1521 1521 1519 1518 1517 1516 1514 1512 1510 1507 1504 1501 1499 1496 1493 1491 1487 1485 1483 1481 1478
1544 1540 1539 1542 1549 1547 1549 1550 1548 1549 1550 1552 1536 1546 1509 1501 1503 1502 1506 1511 1514 1516 1517 1518 1517 1516 1515 1514 1512 1511 1509 1506 1503 1500 1496 1493 1490 1487 1486 1485 1482 1481 1479 1477
1543 1546 1546 1548 1551 1548 1551 1549 1549 1551 1557 1547 1532 1542 1514 1499 1498 1502 1505 1508 1512 1514 1516 1515 1515 1513 1512 1512 1510 1508 1506 1503 1500 1496 1493 1490 1487 1486 1484 1482 1480 1478 1477 1475
1543 1549 1550 1551 1548 1551 1550 1547 1549 1544 1546 1528 1560 1552 1513 1500 1504 1504 1505 1509 1511 1513 1514 1513 1513 1513 1512 1510 1507 1505 1502 1500 1497 1493 1491 1488 1486 1484 1483 1481 1480 1477 1474 1473
1540 1551 1550 1553 1552 1552 1554 1555 1544 1540 1530 1521 1555 1530 1504 1500 1503 1505 1507 1509 1511 1512 1512 1512 1511 1510 1508 1506 1504 1502 1500 1497 1494 1491 1489 1487 1485 1483 1483 1482 1478 1475 1474 1471
1536 1548 1554 1555 1553 1554 1552 1551 1552 1552 1548 1545 1515 1505 1497 1497 1501 1505 1506 1508 1509 1510 1510 1509 1508 1507 1505 1503 1501 1499 1497 1494 1492 1490 1487 1485 1484 1484 1483 1479 1476 1473 1471 1468
1537 1549 1551 1554 1555 1555 1554 1552 1553 1554 1545 1532 1506 1512 1510 1508 1502 1500 1503 1505 1507 1508 1508 1506 1505 1503 1502 1500 1498 1496 1494 1492 1490 1489 1486 1484 1483 1481 1478 1475 1473 1470 1468 1466
1539 1539 1554 1555 1551 1549 1555 1551 1550 1546 1540 1532 1520 1503 1503 1511 1502 1500 1501 1504 1505 1505 1504 1503 1501 1500 1498 1496 1495 1494 1492 1490 1489 1487 1485 1483 1481 1478 1475 1472 1469 1467 1465 1463
1543 1540 1547 1545 1546 1548 1544 1542 1540 1540 1536 1536 1537 1516 1498 1500 1502 1503 1503 1503 1503 1502 1501 1499 1498 1495 1494 1493 1492 1491 1490 1488 1486 1484 1482 1480 1477 1474 1472 1469 1467 1465 1463 1460
1542 1538 1539 1540 1547 1548 1546 1541 1541 1539 1545 1538 1534 1506 1499 1501 1501 1502 1502 1500 1499 1500 1498 1496 1494 1493 1491 1490 1489 1488 1487 1485 1484 1482 1480 1477 1474 1471 1469 1467 1464 1463 1461 1458
1544 1538 1536 1530 1535 1535 1543 1538 1537 1539 1538 1522 1515 1507 1498 1500 1500 1499 1498 1498 1497 1495 1494 1492 1491 1490 1488 1487 1486 1485 1484 1482 1481 1479 1477 1475 1472 1470 1467 1465 1463 1461 1458 1456
1543 1540 1533 1530 1528 1528 1528 1528 1527 1533 1528 1520 1503 1499 1487 1493 1493 1493 1493 1492 1491 1490 1489 1488 1487 1485 1484 1483 1482 1481 1480 1479 1478 1476 1475 1473 1471 1469 1466 1464 1462 1460 1457 1454
1542 1537 1535 1533 1522 1522 1521 1517 1517 1516 1515 1512 1513 1497 1495 1491 1490 1490 1490 1488 1487 1486 1485 1483 1481 1479 1478 1477 1477 1477 1476 1475 1474 1473 1472 1470 1469 1467 1465 1463 1461 1459 1456 1454
1540 1537 1534 1524 1523 1521 1514 1497 1500 1504 1504 1504 1505 1484 1489 1488 1488 1486 1485 1484 1483 1482 1480 1478 1475 1473 1472 1472 1472 1472 1472 1471 1470 1469 1468 1467 1466 1465 1463 1461 1459 1457 1455 1452
1538 1539 1537 1528 1519 1516 1494 1496 1496 1496 1492 1494 1492 1489 1490 1488 1485 1483 1481 1479 1478 1478 1476 1474 1472 1469 1468 1468 1467 1468 1467 1467 1466 1466 1465 1464 1463 1462 1460 1458 1456 1455 1453 1451
1540 1537 1534 1531 1521 1500 1493 1497 1497 1500 1487 1483 1486 1485 1484 1482 1482 1477 1476 1476 1476 1475 1473 1471 1469 1467 1466 1465 1464 1463 1463 1462 1462 1461 1461 1460 1459 1458 1456 1455 1453 1451 1450 1448
1542 1542 1537 1530 1532 1509 1494 1498 1500 1500 1488 1486 1486 1485 1484 1484 1478 1472 1474 1473 1472 1471 1469 1467 1466 1464 1462 1461 1460 1459 1459 1458 1457 1456 1456 1455 1454 1453 1452 1450 1449 1447 1445 1443
1543 1542 1540 1534 1528 1503 1488 1495 1499 1495 1488 1485 1485 1485 1484 1483 1479 1476 1474 1471 1470 1467 1465 1464 1461 1459 1458 1456 1455 1453 1453 1451 1452 1450 1449 1449 1448 1447 1446 1445 1444 1442 1441 1439
1524 1528 1532 1533 1525 1515 1489 1495 1493 1484 1484 1483 1482 1482 1480 1478 1475 1472 1469 1467 1465 1461 1459 1457 1454 1452 1452 1450 1449 1447 1445 1446 1445 1444 1443 1443 1442 1441 1440 1439 1438 1437 1435 1433
1520 1510 1508 1507 1493 1485 1487 1485 1485 1484 1483 1481 1480 1479 1477 1473 1470 1467 1463 1460 1457 1455 1453 1450 1448 1446 1445 1445 1443 1441 1440 1440 1438 1437 1436 1436 1435 1434 1433 1433 1432 1431 1430 1428
1510 1506 1506 1503 1484 1483 1484 1483 1482 1482 1480 1479 1477 1475 1472 1468 1464 1460 1456 1453 1450 1447 1446 1444 1442 1441 1440 1440 1437 1433 1433 1433 1431 1429 1429 1429 1429 1429 1428 1426 1426 1425 1423 1422
1505 1507 1500 1492 1485 1481 1479 1478 1479 1478 1477 1475 1473 1470 1466 1461 1456 1453 1448 1446 1443 1441 1439 1438 1436 1435 1433 1431 1429 1427 1425 1425 1423 1422 1421 1421 1421 1421 1420 1419 1419 1418 1418 1418
1497 1491 1494 1483 1478 1477 1476 1477 1475 1473 1472 1469 1465 1460 1457 1455 1449 1446 1441 1439 1437 1435 1433 1432 1430 1428 1425 1423 1420 1418 1416 1415 1415 1414 1414 1414 1414 1414 1413 1413 1412 1411 1412 1412